Time,TemperatureF,DewpointF,PressureIn,WindDirection,WindDirectionDegrees,WindSpeedMPH,WindSpeedGustMPH,Humidity,HourlyPrecipIn,Conditions,Clouds,dailyrainin,SoftwareType,DateUTC
2013-06-03 00:08:00,50.1,46.0,29.98,NE,36,0.0,-999.0,85,-99.99,,,0.00,weatherlink.com 1.10,2013-06-03 05:08:00,
2013-06-03 00:23:00,49.6,46.0,29.98,NE,36,0.0,-999.0,86,-99.99,,,0.00,weatherlink.com 1.10,2013-06-03 05:23:00,
2013-06-03 00:38:00,49.2,46.0,29.98,NE,36,0.0,-999.0,87,-99.99,,,0.00,weatherlink.com 1.10,2013-06-03 05:38:00,
2013-06-03 00:53:00,48.8,45.0,29.97,NE,36,0.0,-999.0,87,-99.99,,,0.00,weatherlink.com 1.10,2013-06-03 05:53:00,
2013-06-03 01:08:00,48.4,45.0,29.97,NE,36,0.0,-999.0,88,-99.99,,,0.00,weatherlink.com 1.10,2013-06-03 06:08:00,
2013-06-03 01:23:00,47.9,45.0,29.97,NE,36,0.0,-999.0,88,-99.99,,,0.00,weatherlink.com 1.10,2013-06-03 06:23:00,
2013-06-03 01:38:00,47.7,45.0,29.97,NE,36,0.0,-999.0,89,-99.99,,,0.00,weatherlink.com 1.10,2013-06-03 06:38:00,
2013-06-03 01:53:00,47.4,44.0,29.98,NE,36,0.0,-999.0,89,-99.99,,,0.00,weatherlink.com 1.10,2013-06-03 06:53:00,
2013-06-03 02:08:00,47.2,45.0,29.97,NE,36,0.0,-999.0,90,-99.99,,,0.00,weatherlink.com 1.10,2013-06-03 07:08:00,
2013-06-03 02:23:00,47.2,45.0,29.97,NE,36,0.0,-999.0,90,-99.99,,,0.00,weatherlink.com 1.10,2013-06-03 07:23:00,
2013-06-03 02:38:00,47.3,45.0,29.96,NE,36,0.0,-999.0,91,-99.99,,,0.00,weatherlink.com 1.10,2013-06-03 07:38:00,
2013-06-03 02:53:00,47.5,45.0,29.96,NE,36,0.0,-999.0,91,-99.99,,,0.00,weatherlink.com 1.10,2013-06-03 07:53:00,
2013-06-03 03:08:00,47.8,45.0,29.97,NE,36,0.0,-999.0,91,-99.99,,,0.00,weatherlink.com 1.10,2013-06-03 08:08:00,
2013-06-03 03:23:00,48.0,46.0,29.96,NE,36,0.0,-999.0,92,-99.99,,,0.00,weatherlink.com 1.10,2013-06-03 08:23:00,
2013-06-03 03:38:00,48.1,46.0,29.96,NE,36,0.0,-999.0,92,-99.99,,,0.00,weatherlink.com 1.10,2013-06-03 08:38:00,
2013-06-03 03:53:00,48.4,46.0,29.96,NE,36,0.0,-999.0,92,-99.99,,,0.00,weatherlink.com 1.10,2013-06-03 08:53:00,
2013-06-03 04:08:00,48.8,47.0,29.96,NE,36,0.0,-999.0,92,-99.99,,,0.00,weatherlink.com 1.10,2013-06-03 09:08:00,
2013-06-03 04:23:00,49.0,47.0,29.96,NE,36,0.0,-999.0,91,-99.99,,,0.00,weatherlink.com 1.10,2013-06-03 09:23:00,
2013-06-03 04:38:00,48.3,46.0,29.97,NE,36,0.0,-999.0,90,-99.99,,,0.00,weatherlink.com 1.10,2013-06-03 09:38:00,
2013-06-03 04:53:00,47.2,45.0,29.97,NE,36,0.0,-999.0,90,-99.99,,,0.00,weatherlink.com 1.10,2013-06-03 09:53:00,
2013-06-03 05:08:00,46.2,44.0,29.97,NE,36,0.0,-999.0,90,-99.99,,,0.00,weatherlink.com 1.10,2013-06-03 10:08:00,
2013-06-03 05:23:00,45.4,43.0,29.98,NE,36,0.0,-999.0,90,-99.99,,,0.00,weatherlink.com 1.10,2013-06-03 10:23:00,
2013-06-03 05:39:00,44.9,42.0,29.98,NE,36,0.0,-999.0,90,-99.99,,,0.00,weatherlink.com 1.10,2013-06-03 10:39:00,
2013-06-03 05:54:00,44.4,42.0,29.98,NE,36,0.0,-999.0,90,-99.99,,,0.00,weatherlink.com 1.10,2013-06-03 10:54:00,
2013-06-03 06:09:00,44.1,41.0,29.99,NE,36,0.0,-999.0,90,-99.99,,,0.00,weatherlink.com 1.10,2013-06-03 11:09:00,
2013-06-03 06:24:00,44.1,42.0,29.99,NE,36,0.0,-999.0,91,-99.99,,,0.00,weatherlink.com 1.10,2013-06-03 11:24:00,
2013-06-03 06:39:00,45.0,43.0,29.99,NE,36,0.0,-999.0,92,-99.99,,,0.00,weatherlink.com 1.10,2013-06-03 11:39:00,
2013-06-03 06:54:00,46.0,44.0,29.99,NE,36,0.0,-999.0,92,-99.99,,,0.00,weatherlink.com 1.10,2013-06-03 11:54:00,
2013-06-03 07:09:00,47.3,45.0,30.00,NE,37,0.0,-999.0,93,-99.99,,,0.00,weatherlink.com 1.10,2013-06-03 12:09:00,
2013-06-03 07:24:00,48.8,47.0,30.00,ENE,57,0.0,-999.0,93,-99.99,,,0.00,weatherlink.com 1.10,2013-06-03 12:24:00,
2013-06-03 07:39:00,50.1,48.0,30.00,ENE,57,0.0,-999.0,93,-99.99,,,0.00,weatherlink.com 1.10,2013-06-03 12:39:00,
2013-06-03 07:54:00,51.7,50.0,30.00,ENE,57,0.0,-999.0,92,-99.99,,,0.00,weatherlink.com 1.10,2013-06-03 12:54:00,
2013-06-03 08:09:00,54.6,52.0,30.01,ENE,57,0.0,-999.0,92,-99.99,,,0.00,weatherlink.com 1.10,2013-06-03 13:09:00,
2013-06-03 08:24:00,56.4,52.0,30.01,ENE,57,0.0,-999.0,84,-99.99,,,0.00,weatherlink.com 1.10,2013-06-03 13:24:00,
2013-06-03 08:39:00,56.6,50.0,30.01,ENE,57,0.0,-999.0,78,-99.99,,,0.00,weatherlink.com 1.10,2013-06-03 13:39:00,
2013-06-03 08:54:00,58.0,51.0,30.01,ESE,107,0.0,-999.0,77,-99.99,,,0.00,weatherlink.com 1.10,2013-06-03 13:54:00,
2013-06-03 09:09:00,61.1,51.0,30.01,ESE,109,1.0,-999.0,70,-99.99,,,0.00,weatherlink.com 1.10,2013-06-03 14:09:00,
2013-06-03 09:24:00,62.2,51.0,30.02,ESE,113,0.0,-999.0,66,-99.99,,,0.00,weatherlink.com 1.10,2013-06-03 14:24:00,
2013-06-03 09:39:00,62.5,50.0,30.00,ESE,114,0.0,-999.0,64,-99.99,,,0.00,weatherlink.com 1.10,2013-06-03 14:39:00,
2013-06-03 09:54:00,64.7,49.0,30.00,ESE,117,0.0,-999.0,58,-99.99,,,0.00,weatherlink.com 1.10,2013-06-03 14:54:00,
2013-06-03 10:09:00,65.2,50.0,30.00,ESE,113,0.0,-999.0,59,-99.99,,,0.00,weatherlink.com 1.10,2013-06-03 15:09:00,
2013-06-03 10:24:00,65.9,49.0,30.00,South,179,0.0,-999.0,54,-99.99,,,0.00,weatherlink.com 1.10,2013-06-03 15:24:00,
2013-06-03 10:39:00,65.2,48.0,29.99,SW,234,0.0,-999.0,54,-99.99,,,0.00,weatherlink.com 1.10,2013-06-03 15:39:00,
2013-06-03 10:54:00,65.3,47.0,30.00,SW,216,0.0,-999.0,51,-99.99,,,0.00,weatherlink.com 1.10,2013-06-03 15:54:00,
2013-06-03 11:09:00,65.7,46.0,30.00,SW,227,1.0,-999.0,50,-99.99,,,0.00,weatherlink.com 1.10,2013-06-03 16:09:00,
2013-06-03 11:24:00,66.4,46.0,30.00,West,266,0.0,-999.0,48,-99.99,,,0.00,weatherlink.com 1.10,2013-06-03 16:24:00,
2013-06-03 11:39:00,66.8,46.0,30.00,SW,226,0.0,-999.0,48,-99.99,,,0.00,weatherlink.com 1.10,2013-06-03 16:39:00,
2013-06-03 11:54:00,68.1,48.0,30.00,NNE,32,0.0,-999.0,49,-99.99,,,0.00,weatherlink.com 1.10,2013-06-03 16:54:00,
2013-06-03 12:09:00,67.8,47.0,30.00,SE,136,1.0,-999.0,48,-99.99,,,0.00,weatherlink.com 1.10,2013-06-03 17:09:00,
2013-06-03 12:24:00,67.9,47.0,30.00,SE,129,0.0,-999.0,48,-99.99,,,0.00,weatherlink.com 1.10,2013-06-03 17:24:00,
2013-06-03 12:39:00,68.0,48.0,29.99,SE,128,0.0,-999.0,49,-99.99,,,0.00,weatherlink.com 1.10,2013-06-03 17:39:00,
2013-06-03 12:54:00,68.3,47.0,29.99,ENE,71,0.0,-999.0,47,-99.99,,,0.00,weatherlink.com 1.10,2013-06-03 17:54:00,
2013-06-03 13:09:00,68.6,47.0,29.98,East,98,0.0,-999.0,46,-99.99,,,0.00,weatherlink.com 1.10,2013-06-03 18:09:00,
2013-06-03 13:24:00,68.1,46.0,29.99,ESE,104,0.0,-999.0,46,-99.99,,,0.00,weatherlink.com 1.10,2013-06-03 18:24:00,
2013-06-03 13:39:00,67.4,46.0,29.99,ESE,104,0.0,-999.0,46,-99.99,,,0.00,weatherlink.com 1.10,2013-06-03 18:39:00,
2013-06-03 13:55:00,67.9,47.0,29.98,ESE,103,0.0,-999.0,48,-99.99,,,0.00,weatherlink.com 1.10,2013-06-03 18:55:00,
2013-06-03 14:10:00,67.9,47.0,29.99,ESE,103,0.0,-999.0,47,-99.99,,,0.00,weatherlink.com 1.10,2013-06-03 19:10:00,
2013-06-03 14:25:00,68.3,49.0,29.98,ESE,103,0.0,-999.0,50,-99.99,,,0.00,weatherlink.com 1.10,2013-06-03 19:25:00,
2013-06-03 14:40:00,68.4,50.0,29.97,ESE,103,0.0,-999.0,53,-99.99,,,0.00,weatherlink.com 1.10,2013-06-03 19:40:00,
2013-06-03 14:56:00,68.4,47.0,29.97,ESE,111,0.0,-999.0,46,-99.99,,,0.00,weatherlink.com 1.10,2013-06-03 19:56:00,
2013-06-03 15:10:00,68.1,49.0,29.96,ESE,111,2.0,-999.0,50,-99.99,,,0.00,weatherlink.com 1.10,2013-06-03 20:10:00,
2013-06-03 15:25:00,68.3,45.0,29.95,ESE,117,3.0,-999.0,43,-99.99,,,0.00,weatherlink.com 1.10,2013-06-03 20:25:00,
2013-06-03 15:40:00,68.3,46.0,29.96,SE,131,0.0,-999.0,45,-99.99,,,0.00,weatherlink.com 1.10,2013-06-03 20:40:00,
2013-06-03 15:55:00,67.9,48.0,29.96,ESE,122,0.0,-999.0,50,-99.99,,,0.00,weatherlink.com 1.10,2013-06-03 20:55:00,
2013-06-03 16:10:00,67.4,48.0,29.96,ESE,112,0.0,-999.0,50,-99.99,,,0.00,weatherlink.com 1.10,2013-06-03 21:10:00,
2013-06-03 16:25:00,67.4,48.0,29.95,ESE,111,1.0,-999.0,51,-99.99,,,0.00,weatherlink.com 1.10,2013-06-03 21:25:00,
2013-06-03 16:40:00,67.1,47.0,29.94,SE,133,0.0,-999.0,48,-99.99,,,0.00,weatherlink.com 1.10,2013-06-03 21:40:00,
2013-06-03 16:55:00,66.5,48.0,29.93,East,98,1.0,-999.0,51,-99.99,,,0.00,weatherlink.com 1.10,2013-06-03 21:55:00,
2013-06-03 17:10:00,66.0,48.0,29.93,East,99,0.0,-999.0,53,-99.99,,,0.00,weatherlink.com 1.10,2013-06-03 22:10:00,
2013-06-03 17:25:00,65.8,49.0,29.93,ESE,104,0.0,-999.0,54,-99.99,,,0.00,weatherlink.com 1.10,2013-06-03 22:25:00,
2013-06-03 17:40:00,65.5,48.0,29.93,ESE,103,1.0,-999.0,54,-99.99,,,0.00,weatherlink.com 1.10,2013-06-03 22:40:00,
2013-06-03 17:55:00,65.1,48.0,29.91,ESE,105,1.0,-999.0,54,-99.99,,,0.00,weatherlink.com 1.10,2013-06-03 22:55:00,
2013-06-03 18:10:00,65.0,48.0,29.91,East,96,0.0,-999.0,54,-99.99,,,0.00,weatherlink.com 1.10,2013-06-03 23:10:00,
2013-06-03 18:25:00,65.3,50.0,29.91,East,80,0.0,-999.0,58,-99.99,,,0.00,weatherlink.com 1.10,2013-06-03 23:25:00,
2013-06-03 18:40:00,65.3,49.0,29.93,SE,143,0.0,-999.0,55,-99.99,,,0.00,weatherlink.com 1.10,2013-06-03 23:40:00,
2013-06-03 18:55:00,65.5,50.0,29.93,ESE,118,0.0,-999.0,57,-99.99,,,0.00,weatherlink.com 1.10,2013-06-03 23:55:00,
2013-06-03 19:10:00,65.6,49.0,29.93,ESE,117,0.0,-999.0,55,-99.99,,,0.00,weatherlink.com 1.10,2013-06-04 00:10:00,
2013-06-03 19:25:00,65.4,48.0,29.93,ESE,119,2.0,-999.0,54,-99.99,,,0.00,weatherlink.com 1.10,2013-06-04 00:25:00,
2013-06-03 19:40:00,65.1,49.0,29.94,SE,126,0.0,-999.0,56,-99.99,,,0.00,weatherlink.com 1.10,2013-06-04 00:40:00,
2013-06-03 19:55:00,64.7,49.0,29.94,SE,125,0.0,-999.0,57,-99.99,,,0.00,weatherlink.com 1.10,2013-06-04 00:55:00,
2013-06-03 20:10:00,64.3,50.0,29.95,SE,125,0.0,-999.0,60,-99.99,,,0.00,weatherlink.com 1.10,2013-06-04 01:10:00,
2013-06-03 20:25:00,63.7,49.0,29.96,SE,125,0.0,-999.0,60,-99.99,,,0.00,weatherlink.com 1.10,2013-06-04 01:25:00,
2013-06-03 20:40:00,63.1,50.0,29.97,SE,125,0.0,-999.0,62,-99.99,,,0.00,weatherlink.com 1.10,2013-06-04 01:40:00,
2013-06-03 20:55:00,62.6,50.0,29.97,SE,125,0.0,-999.0,64,-99.99,,,0.00,weatherlink.com 1.10,2013-06-04 01:55:00,
2013-06-03 21:10:00,62.2,51.0,29.96,SE,125,1.0,-999.0,68,-99.99,,,0.00,weatherlink.com 1.10,2013-06-04 02:10:00,
2013-06-03 21:25:00,61.6,50.0,29.96,SE,125,0.0,-999.0,67,-99.99,,,0.00,weatherlink.com 1.10,2013-06-04 02:25:00,
2013-06-03 21:40:00,61.3,51.0,29.97,SE,125,0.0,-999.0,68,-99.99,,,0.00,weatherlink.com 1.10,2013-06-04 02:40:00,
2013-06-03 21:55:00,61.0,50.0,29.97,SE,125,0.0,-999.0,68,-99.99,,,0.00,weatherlink.com 1.10,2013-06-04 02:55:00,
2013-06-03 22:10:00,60.9,51.0,29.97,SE,125,0.0,-999.0,69,-99.99,,,0.00,weatherlink.com 1.10,2013-06-04 03:10:00,
2013-06-03 22:25:00,60.7,50.0,29.98,SE,125,0.0,-999.0,69,-99.99,,,0.00,weatherlink.com 1.10,2013-06-04 03:25:00,
2013-06-03 22:40:00,60.5,51.0,29.98,SE,125,0.0,-999.0,70,-99.99,,,0.00,weatherlink.com 1.10,2013-06-04 03:40:00,
2013-06-03 22:55:00,60.3,50.0,29.99,SE,125,0.0,-999.0,70,-99.99,,,0.00,weatherlink.com 1.10,2013-06-04 03:55:00,
2013-06-03 23:10:00,60.0,51.0,29.99,SE,125,0.0,-999.0,71,-99.99,,,0.00,weatherlink.com 1.10,2013-06-04 04:10:00,
2013-06-03 23:25:00,59.8,51.0,29.99,SE,125,0.0,-999.0,72,-99.99,,,0.00,weatherlink.com 1.10,2013-06-04 04:25:00,
2013-06-03 23:40:00,59.7,51.0,29.99,SE,125,0.0,-999.0,73,-99.99,,,0.00,weatherlink.com 1.10,2013-06-04 04:40:00,
2013-06-03 23:55:00,59.5,51.0,29.98,SE,125,1.0,-999.0,73,-99.99,,,0.00,weatherlink.com 1.10,2013-06-04 04:55:00,